Regional Weather Roundup
Issued by NWS

Home | Current Version | Previous Version | Text Only | Print | Product List | Glossary On
Versions: 1 2 3 4 5 6 7 8 9 10 11 12 13 14 15 16 17 18 19 20 21 22 23 24 25 26 27 28 29 30 31 32 33 34 35 36 37 38 39 40 41 42 43 44 45 46 47 48 49 50
000
ASUS43 KBIS 260610
RWRND

NORTH DAKOTA REGIONAL WEATHER ROUNDUP
NATIONAL WEATHER SERVICE BISMARCK ND
100 AM CDT WED APR 26 2017

NOTE: "FAIR" INDICATES FEW OR NO CLOUDS BELOW 12,000 FEET WITH NO
SIGNIFICANT WEATHER AND/OR OBSTRUCTIONS TO VISIBILITY.


NDZ001>003-009>011-017-260700-
NORTHWEST NORTH DAKOTA

CITY           SKY/WX    TMP DP  RH WIND       PRES   REMARKS
WILLISTON      CLOUDY    34  25  69 NE7       29.99S
6HR MIN TEMP:  34; 6HR MAX TEMP:  40;

MINOT          FAIR      32  24  72 N13       29.97S
MINOT AFB      MOCLDY    31  22  67 NE16      29.97S
$$

NDZ018>021-031>035-040>046-260700-
SOUTHWEST NORTH DAKOTA

CITY           SKY/WX    TMP DP  RH WIND       PRES   REMARKS
BISMARCK       CLOUDY    37  26  64 N9        29.91F
6HR MIN TEMP:  36; 6HR MAX TEMP:  37;

DICKINSON      CLOUDY    31  25  78 N5        29.90F
GARRISON         N/A     33  24  69 NE8       29.95S
6HR MIN TEMP:  32; 6HR MAX TEMP:  39;

HETTINGER ARPT CLOUDY    31  25  78 N6        29.92S
$$

NDZ004>008-012>016-024-026-027-054-260700-
NORTHEAST NORTH DAKOTA

CITY           SKY/WX    TMP DP  RH WIND       PRES   REMARKS
GRAND FORKS    CLOUDY    33  27  78 NE20      29.87F
GRND FRKS AFB  CLOUDY    31  25  76 NE18G28   29.87F WCI  19
DEVILS LAKE    FAIR      32  26  78 NE15      29.91F
$$

NDZ022-023-025-028>030-036>039-047>053-260700-
SOUTHEAST NORTH DAKOTA

CITY           SKY/WX    TMP DP  RH WIND       PRES   REMARKS
FARGO          LGT RAIN  33  28  81 N16G28    29.78F
6HR MIN TEMP:  33; 6HR MAX TEMP:  37; 6HR PCP: TRACE;

JAMESTOWN      CLOUDY    32  26  78 N17G24    29.82F
$$





USA.gov is the U.S. government's official web portal to all federal, state and local government web resources and services.